This is the latest recevied weather packets stored in our database for station/object WC4PEM-1. If no packets are shown the sender has not sent any weather packets the latest 10 day(s).
| Time | Temp. | Humidity | Pressure | Rain* | Wind** | Luminosity | Snow |
|---|---|---|---|---|---|---|---|
| 1778086101 | 31.11° C | 49% | 1016.1 hPa | 0 mm | - | 844 W/m² | - |
| 1778085801 | 30.56° C | 50% | 1016.2 hPa | 0 mm | - | 693 W/m² | - |
| 1778085501 | 30.56° C | 51% | 1016.2 hPa | 0 mm | - | 817 W/m² | - |
| 1778085201 | 30.56° C | 53% | 1016.2 hPa | 0 mm | - | 737 W/m² | - |
| 1778084901 | 30° C | 52% | 1016.2 hPa | 0 mm | - | 738 W/m² | - |
| 1778084601 | 30° C | 52% | 1016.2 hPa | 0 mm | - | 705 W/m² | - |
| 1778084301 | 30° C | 53% | 1016.2 hPa | 0 mm | - | 881 W/m² | - |
| 1778084102 | 29.44° C | 53% | 1016.3 hPa | 0 mm | - | 729 W/m² | - |
| 1778084001 | 29.44° C | 53% | 1016.3 hPa | 0 mm | - | 729 W/m² | - |
| 1778083701 | 29.44° C | 54% | 1016.3 hPa | 0 mm | - | 838 W/m² | - |
| 1778083401 | 29.44° C | 54% | 1016.3 hPa | 0 mm | - | 680 W/m² | - |
| 1778083101 | 29.44° C | 54% | 1016.3 hPa | 0 mm | - | 773 W/m² | - |
| 1778082801 | 29.44° C | 53% | 1016.2 hPa | 0 mm | - | 807 W/m² | - |
| 1778082605 | 29.44° C | 52% | 1016.2 hPa | 0 mm | - | 761 W/m² | - |
| 1778082501 | 29.44° C | 52% | 1016.2 hPa | 0 mm | - | 761 W/m² | - |
| 1778082201 | 29.44° C | 51% | 1016.2 hPa | 0 mm | - | 731 W/m² | - |
| 1778081901 | 29.44° C | 49% | 1016.3 hPa | 0 mm | - | 722 W/m² | - |
| 1778081601 | 29.44° C | 55% | 1016.3 hPa | 0 mm | - | 761 W/m² | - |
| 1778081301 | 28.89° C | 50% | 1016.3 hPa | 0 mm | - | 689 W/m² | - |
| 1778081086 | 28.89° C | 55% | 1016.4 hPa | 0 mm | - | 791 W/m² | - |
| 1778081001 | 28.89° C | 55% | 1016.4 hPa | 0 mm | - | 791 W/m² | - |
| 1778080701 | 28.89° C | 54% | 1016.4 hPa | 0 mm | - | 731 W/m² | - |
| 1778080401 | 28.89° C | 56% | 1016.4 hPa | 0 mm | - | 693 W/m² | - |
| 1778080245 | 28.33° C | 57% | 1016.3 hPa | 0 mm | - | 796 W/m² | - |
| 1778080101 | 28.33° C | 57% | 1016.3 hPa | 0 mm | - | 796 W/m² | - |
* Rain latest hour (hover to see other rain measurements)
** Current wind speed in m/s (hover to see current wind gust speed)